W6HN Weather Reports


Display with metric or nautical units.
time (UTC)temp
F
wind
direction
speed
MPH
gust
MPH
rain 1hr
in
rain 24hr
in
rain mn
in
humidity
%
barometer
mb
20170922081832 54 296 1.0 0.0 0.00 0.00 0.00 73 1007.3
20170922081349 54 296 1.0 0.0 0.00 0.00 0.00 72 1007.3
20170922080834 54 297 1.0 0.0 0.00 0.00 0.00 72 1007.3
20170922080339 54 297 1.0 0.0 0.00 0.00 0.00 72 1007.3
20170922075841 54 298 2.0 0.0 0.00 0.00 0.00 71 1007.3
20170922075342 54 298 2.0 0.0 0.00 0.00 0.00 71 1007.3
20170922074835 55 301 2.0 0.0 0.00 0.00 0.00 70 1007.4
20170922074336 55 300 2.0 0.0 0.00 0.00 0.00 70 1007.4
20170922073833 55 302 2.0 0.0 0.00 0.00 0.00 69 1007.4
20170922073331 55 293 2.0 0.0 0.00 0.00 0.00 69 1007.6
20170922072850 55 294 2.0 0.0 0.00 0.00 0.00 68 1007.6
20170922072333 56 306 2.0 0.0 0.00 0.00 0.00 68 1007.6
20170922071832 55 301 2.0 0.0 0.00 0.00 0.00 68 1007.7
20170922071332 55 287 2.0 0.0 0.00 0.00 0.00 68 1007.7
20170922070834 55 295 2.0 0.0 0.00 0.00 0.00 68 1007.7
20170922070347 55 293 2.0 0.0 0.00 0.00 0.00 68 1007.7
20170922065847 55 290 2.0 0.0 0.00 0.00 0.00 68 1007.6
20170922065350 55 290 2.0 0.0 0.00 0.00 0.00 67 1007.6
20170922064846 55 298 2.0 0.0 0.00 0.00 0.00 67 1007.6
20170922064333 55 301 2.0 0.0 0.00 0.00 0.00 67 1007.8
20170922063836 55 319 2.0 0.0 0.00 0.00 0.00 67 1007.8
20170922063342 55 288 2.0 0.0 0.00 0.00 0.00 66 1007.8
20170922062835 55 279 2.0 0.0 0.00 0.00 0.00 67 1007.8
20170922062339 55 304 2.0 0.0 0.00 0.00 0.00 67 1007.8
20170922061851 55 289 2.0 0.0 0.00 0.00 0.00 66 1007.8
20170922061335 55 295 2.0 0.0 0.00 0.00 0.00 66 1007.8
20170922060834 55 298 1.0 0.0 0.00 0.00 0.00 65 1007.8
20170922060336 55 302 1.0 0.0 0.00 0.00 0.00 65 1007.7
20170922055832 55 300 1.0 0.0 0.00 0.00 0.00 64 1007.7
20170922055338 55 303 1.0 0.0 0.00 0.00 0.00 63 1007.7
20170922054830 55 301 2.0 0.0 0.00 0.00 0.00 63 1007.7
20170922054337 56 300 2.0 0.0 0.00 0.00 0.00 63 1007.8
20170922053845 56 299 2.0 0.0 0.00 0.00 0.00 62 1007.8
20170922053341 56 296 2.0 0.0 0.00 0.00 0.00 62 1007.8
20170922052840 56 298 2.0 0.0 0.00 0.00 0.00 61 1007.8
20170922052351 56 296 2.0 0.0 0.00 0.00 0.00 61 1007.8
20170922051850 56 293 1.0 0.0 0.00 0.00 0.00 60 1007.8
20170922051335 57 291 1.0 0.0 0.00 0.00 0.00 60 1007.8
20170922050840 57 288 1.0 0.0 0.00 0.00 0.00 59 1007.8
20170922050335 57 283 2.0 0.0 0.00 0.00 0.00 58 1007.7
20170922045834 57 292 2.0 0.0 0.00 0.00 0.00 58 1007.7
20170922045334 57 294 1.0 0.0 0.00 0.00 0.00 58 1007.7
20170922044840 58 294 1.0 0.0 0.00 0.00 0.00 57 1007.7
20170922044333 58 293 0.0 0.0 0.00 0.00 0.00 57 1007.7
20170922043843 58 292 0.0 0.0 0.00 0.00 0.00 56 1007.7
20170922043335 58 291 1.0 0.0 0.00 0.00 0.00 56 1007.6
20170922042841 58 291 1.0 0.0 0.00 0.00 0.00 56 1007.6
20170922042340 58 290 2.0 0.0 0.00 0.00 0.00 55 1007.6
20170922041833 58 289 2.0 0.0 0.00 0.00 0.00 55 1007.7
20170922041351 58 294 2.0 0.0 0.00 0.00 0.00 55 1007.7
20170922040832 59 294 2.0 0.0 0.00 0.00 0.00 55 1007.7
20170922040339 59 300 2.0 0.0 0.00 0.00 0.00 55 1007.5
20170922035834 59 310 2.0 0.0 0.00 0.00 0.00 55 1007.5
20170922035338 59 300 2.0 0.0 0.00 0.00 0.00 55 1007.5
20170922034850 59 310 2.0 0.0 0.00 0.00 0.00 55 1007.5
20170922034333 59 303 2.0 0.0 0.00 0.00 0.00 55 1007.3
20170922033840 60 299 2.0 0.0 0.00 0.00 0.00 54 1007.3
20170922033343 60 299 2.0 0.0 0.00 0.00 0.00 54 1007.3
20170922032843 60 300 2.0 0.0 0.00 0.00 0.00 54 1007.2
20170922032340 60 292 1.0 0.0 0.00 0.00 0.00 54 1007.2
20170922031845 60 300 1.0 0.0 0.00 0.00 0.00 54 1007.2
20170922031333 60 306 2.0 0.0 0.00 0.00 0.00 54 1006.9
20170922030834 60 288 2.0 0.0 0.00 0.00 0.00 54 1006.9
20170922030335 60 298 2.0 0.0 0.00 0.00 0.00 54 1006.9
20170922025844 61 307 3.0 0.0 0.00 0.00 0.00 54 1006.9
20170922025343 61 292 3.0 0.0 0.00 0.00 0.00 53 1006.9
20170922024845 61 285 3.0 0.0 0.00 0.00 0.00 53 1006.9
20170922024342 61 297 3.0 0.0 0.00 0.00 0.00 52 1006.7
20170922023847 61 308 4.0 0.0 0.00 0.00 0.00 52 1006.7
20170922023347 62 336 4.0 0.0 0.00 0.00 0.00 52 1006.8
20170922022834 62 290 4.0 0.0 0.00 0.00 0.00 51 1006.7
20170922022337 62 289 4.0 0.0 0.00 0.00 0.00 51 1006.7
20170922021842 62 297 3.0 0.0 0.00 0.00 0.00 50 1006.7
20170922021344 63 315 3.0 0.0 0.00 0.00 0.00 50 1006.6
20170922020849 63 306 4.0 0.0 0.00 0.00 0.00 49 1006.6
20170922020347 63 306 4.0 0.0 0.00 0.00 0.00 48 1006.6
20170922015848 64 302 4.0 0.0 0.00 0.00 0.00 47 1006.5
20170922015350 64 257 5.0 0.0 0.00 0.00 0.00 47 1006.5
20170922014834 64 292 5.0 0.0 0.00 0.00 0.00 47 1006.4
20170922014350 64 321 4.0 0.0 0.00 0.00 0.00 46 1006.4
20170922013835 65 308 4.0 0.0 0.00 0.00 0.00 46 1006.4
20170922013335 65 258 4.0 0.0 0.00 0.00 0.00 46 1006.3
20170922012849 65 311 4.0 0.0 0.00 0.00 0.00 45 1006.3
20170922012348 66 300 4.0 0.0 0.00 0.00 0.00 44 1006.3
20170922011843 66 276 4.0 0.0 0.00 0.00 0.00 43 1006.3
20170922011347 67 308 4.0 0.0 0.00 0.00 0.00 42 1006.2
20170922010845 68 279 3.0 0.0 0.00 0.00 0.00 40 1006.2
20170922010348 69 300 4.0 0.0 0.00 0.00 0.00 40 1006.2
20170922005842 69 305 5.0 0.0 0.00 0.00 0.00 39 1006.2
20170922005337 69 279 6.0 0.0 0.00 0.00 0.00 38 1006.2
20170922004834 69 317 5.0 0.0 0.00 0.00 0.00 37 1006.2
20170922004333 70 288 4.0 0.0 0.00 0.00 0.00 37 1006.2
20170922003849 71 309 4.0 0.0 0.00 0.00 0.00 36 1006.2
20170922003348 71 296 4.0 0.0 0.00 0.00 0.00 35 1006.2
20170922002846 71 319 5.0 0.0 0.00 0.00 0.00 35 1006.0
20170922002351 72 305 4.0 0.0 0.00 0.00 0.00 35 1006.0
20170922001833 72 281 4.0 0.0 0.00 0.00 0.00 35 1005.8
20170922001335 72 283 5.0 0.0 0.00 0.00 0.00 35 1005.8
20170922000833 72 298 5.0 0.0 0.00 0.00 0.00 33 1005.8
20170922000351 73 300 4.0 0.0 0.00 0.00 0.00 33 1005.8
20170921235849 73 289 3.0 0.0 0.00 0.00 0.00 33 1005.8
20170921235348 73 296 4.0 0.0 0.00 0.00 0.00 32 1005.8
20170921234845 74 306 5.0 0.0 0.00 0.00 0.00 33 1005.8
20170921234339 73 278 4.0 0.0 0.00 0.00 0.00 32 1005.7
20170921233851 74 309 3.0 0.0 0.00 0.00 0.00 31 1005.7
20170921233347 74 285 3.0 0.0 0.00 0.00 0.00 31 1005.7
20170921232833 74 279 4.0 0.0 0.00 0.00 0.00 30 1005.7
20170921232344 75 294 4.0 0.0 0.00 0.00 0.00 29 1005.7
20170921231850 75 283 2.0 0.0 0.00 0.00 0.00 29 1005.7
20170921231335 75 297 2.0 0.0 0.00 0.00 0.00 30 1005.7
20170921230834 75 316 3.0 0.0 0.00 0.00 0.00 29 1005.7
20170921230352 75 287 3.0 0.0 0.00 0.00 0.00 29 1005.7
20170921225851 75 306 3.0 0.0 0.00 0.00 0.00 28 1005.7
20170921225349 74 300 3.0 0.0 0.00 0.00 0.00 29 1005.7
20170921224834 75 263 2.0 0.0 0.00 0.00 0.00 28 1005.7
20170921224332 75 300 2.0 0.0 0.00 0.00 0.00 28 1005.7
20170921223846 75 302 3.0 0.0 0.00 0.00 0.00 28 1005.7
20170921223349 76 304 2.0 0.0 0.00 0.00 0.00 28 1005.7
20170921222837 76 238 3.0 0.0 0.00 0.00 0.00 28 1005.8
20170921222331 75 288 3.0 0.0 0.00 0.00 0.00 29 1005.7
20170921221846 75 288 3.0 0.0 0.00 0.00 0.00 29 1005.7
20170921221351 75 279 3.0 0.0 0.00 0.00 0.00 29 1005.7
20170921220833 75 286 2.0 0.0 0.00 0.00 0.00 30 1005.7
20170921220346 75 214 2.0 0.0 0.00 0.00 0.00 30 1005.8
20170921215841 75 252 2.0 0.0 0.00 0.00 0.00 30 1005.9
20170921215338 75 294 2.0 0.0 0.00 0.00 0.00 30 1005.9
20170921214850 76 294 2.0 0.0 0.00 0.00 0.00 29 1005.9
20170921214348 76 299 2.0 0.0 0.00 0.00 0.00 30 1006.0
20170921213836 76 287 2.0 0.0 0.00 0.00 0.00 31 1006.0
20170921213340 75 297 2.0 0.0 0.00 0.00 0.00 31 1006.0
20170921212841 76 291 2.0 0.0 0.00 0.00 0.00 30 1006.1
20170921212341 76 257 2.0 0.0 0.00 0.00 0.00 31 1006.1
20170921211834 76 294 2.0 0.0 0.00 0.00 0.00 31 1006.2
20170921211349 75 297 2.0 0.0 0.00 0.00 0.00 32 1006.2
20170921210844 75 312 2.0 0.0 0.00 0.00 0.00 32 1006.2
20170921210332 75 256 2.0 0.0 0.00 0.00 0.00 34 1006.4
20170921205845 75 294 2.0 0.0 0.00 0.00 0.00 32 1006.4
20170921205348 74 302 3.0 0.0 0.00 0.00 0.00 34 1006.4
20170921204846 74 287 2.0 0.0 0.00 0.00 0.00 35 1006.4
20170921204340 74 300 2.0 0.0 0.00 0.00 0.00 35 1006.7
20170921203841 74 275 2.0 0.0 0.00 0.00 0.00 35 1006.7
20170921203339 73 306 3.0 0.0 0.00 0.00 0.00 35 1006.7
20170921202845 73 295 3.0 0.0 0.00 0.00 0.00 35 1006.7
20170921202347 73 292 2.0 0.0 0.00 0.00 0.00 35 1006.7
20170921201832 74 296 2.0 0.0 0.00 0.00 0.00 35 1007.0
20170921201347 73 272 2.0 0.0 0.00 0.00 0.00 36 1007.0
20170921200845 73 308 1.0 0.0 0.00 0.00 0.00 36 1007.0
20170921200338 72 293 1.0 0.0 0.00 0.00 0.00 37 1007.0
20170921195843 72 291 2.0 0.0 0.00 0.00 0.00 37 1007.2
20170921195333 72 292 2.0 0.0 0.00 0.00 0.00 37 1007.2
20170921194851 71 314 3.0 0.0 0.00 0.00 0.00 37 1007.2
20170921194331 71 297 3.0 0.0 0.00 0.00 0.00 37 1007.3
20170921193848 71 309 3.0 0.0 0.00 0.00 0.00 38 1007.3
20170921193350 71 292 3.0 0.0 0.00 0.00 0.00 37 1007.3
20170921192843 70 299 3.0 0.0 0.00 0.00 0.00 38 1007.3
20170921192348 70 291 3.0 0.0 0.00 0.00 0.00 40 1007.3
20170921191830 70 301 3.0 0.0 0.00 0.00 0.00 39 1007.3
20170921191334 70 296 3.0 0.0 0.00 0.00 0.00 38 1007.3
20170921190838 70 293 3.0 0.0 0.00 0.00 0.00 38 1007.3
20170921190351 71 287 3.0 0.0 0.00 0.00 0.00 38 1007.4
20170921185833 70 309 3.0 0.0 0.00 0.00 0.00 38 1007.5
20170921185332 70 284 3.0 0.0 0.00 0.00 0.00 38 1007.5
20170921184839 70 267 2.0 0.0 0.00 0.00 0.00 38 1007.5
20170921184351 70 288 2.0 0.0 0.00 0.00 0.00 41 1007.7
20170921183832 69 301 2.0 0.0 0.00 0.00 0.00 41 1007.7
20170921183333 69 294 2.0 0.0 0.00 0.00 0.00 40 1007.8
20170921182844 68 321 2.0 0.0 0.00 0.00 0.00 42 1007.8
20170921182345 68 298 2.0 0.0 0.00 0.00 0.00 44 1007.8
20170921181833 67 316 3.0 0.0 0.00 0.00 0.00 44 1007.8
20170921181349 66 264 3.0 0.0 0.00 0.00 0.00 45 1007.8
20170921180846 66 300 3.0 0.0 0.00 0.00 0.00 44 1007.8
20170921180348 66 290 3.0 0.0 0.00 0.00 0.00 46 1007.8
20170921175831 66 320 4.0 0.0 0.00 0.00 0.00 48 1007.9
20170921175343 65 288 4.0 0.0 0.00 0.00 0.00 48 1007.9
20170921174840 64 285 4.0 0.0 0.00 0.00 0.00 49 1007.9
20170921174344 64 288 5.0 0.0 0.00 0.00 0.00 50 1008.1
20170921173829 64 296 4.0 0.0 0.00 0.00 0.00 50 1008.1
20170921173333 63 309 4.0 0.0 0.00 0.00 0.00 52 1008.0
20170921172841 63 286 4.0 0.0 0.00 0.00 0.00 51 1008.0
20170921172342 63 282 4.0 0.0 0.00 0.00 0.00 52 1008.0
20170921171832 62 291 4.0 0.0 0.00 0.00 0.00 52 1008.1
20170921171332 62 286 5.0 0.0 0.00 0.00 0.00 53 1008.1
20170921170833 61 261 5.0 0.0 0.00 0.00 0.00 54 1008.1
20170921170348 61 314 4.0 0.0 0.00 0.00 0.00 54 1008.1
20170921165844 61 302 4.0 0.0 0.00 0.00 0.00 55 1008.0
20170921165347 61 293 4.0 0.0 0.00 0.00 0.00 55 1008.0
20170921164851 61 302 4.0 0.0 0.00 0.00 0.00 57 1008.0
20170921164342 60 306 4.0 0.0 0.00 0.00 0.00 57 1007.9
20170921163843 60 290 4.0 0.0 0.00 0.00 0.00 58 1007.9
20170921163342 60 310 3.0 0.0 0.00 0.00 0.00 59 1007.9
20170921162847 59 295 3.0 0.0 0.00 0.00 0.00 59 1007.9
20170921162332 59 288 3.0 0.0 0.00 0.00 0.00 60 1007.9
20170921161838 58 278 4.0 0.0 0.00 0.00 0.00 61 1007.9
20170921161332 58 275 3.0 0.0 0.00 0.00 0.00 61 1007.8
20170921160851 58 351 2.0 0.0 0.00 0.00 0.00 63 1007.8
20170921160348 58 292 2.0 0.0 0.00 0.00 0.00 64 1007.8
20170921155843 57 229 3.0 0.0 0.00 0.00 0.00 64 1007.8
20170921155338 57 273 4.0 0.0 0.00 0.00 0.00 65 1007.8
20170921154840 56 275 4.0 0.0 0.00 0.00 0.00 66 1007.8
20170921154341 56 269 3.0 0.0 0.00 0.00 0.00 67 1007.7
20170921153840 56 311 3.0 0.0 0.00 0.00 0.00 67 1007.7
20170921153350 55 306 3.0 0.0 0.00 0.00 0.00 68 1007.6
20170921152845 55 296 3.0 0.0 0.00 0.00 0.00 69 1007.4
20170921152349 55 308 4.0 0.0 0.00 0.00 0.00 70 1007.4
20170921151832 54 293 3.0 0.0 0.00 0.00 0.00 70 1007.3
20170921151349 54 266 3.0 0.0 0.00 0.00 0.00 71 1007.3
20170921150851 54 292 3.0 0.0 0.00 0.00 0.00 71 1007.3
20170921150332 54 286 3.0 0.0 0.00 0.00 0.00 73 1007.3
20170921145846 54 296 3.0 0.0 0.00 0.00 0.00 73 1007.3
20170921145346 53 277 3.0 0.0 0.00 0.00 0.00 73 1007.3
20170921144833 53 293 3.0 0.0 0.00 0.00 0.00 73 1007.3
20170921144346 53 284 3.0 0.0 0.00 0.00 0.00 73 1007.3
20170921143845 53 302 3.0 0.0 0.00 0.00 0.00 74 1007.3
20170921143343 52 288 2.0 0.0 0.00 0.00 0.00 75 1007.3
20170921142849 52 313 1.0 0.0 0.00 0.00 0.00 76 1007.3
20170921142346 52 290 1.0 0.0 0.00 0.00 0.00 77 1007.3
20170921141843 52 301 0.0 0.0 0.00 0.00 0.00 77 1007.3
20170921141342 52 302 0.0 0.0 0.00 0.00 0.00 77 1007.0
20170921140837 52 302 1.0 0.0 0.00 0.00 0.00 77 1007.0
20170921140338 52 302 1.0 0.0 0.00 0.00 0.00 77 1007.1
20170921135836 52 298 1.0 0.0 0.00 0.00 0.00 77 1006.8
20170921135336 52 294 2.0 0.0 0.00 0.00 0.00 77 1006.8
20170921134832 52 288 2.0 0.0 0.00 0.00 0.00 77 1006.7
20170921134345 52 286 1.0 0.0 0.00 0.00 0.00 77 1006.7
20170921133840 52 302 2.0 0.0 0.00 0.00 0.00 76 1006.7
20170921133348 52 277 2.0 0.0 0.00 0.00 0.00 77 1006.7
20170921132832 52 310 3.0 0.0 0.00 0.00 0.00 77 1006.7
20170921132338 52 285 3.0 0.0 0.00 0.00 0.00 77 1006.7
20170921131841 53 265 2.0 0.0 0.00 0.00 0.00 77 1006.7
20170921131341 53 297 2.0 0.0 0.00 0.00 0.00 76 1006.7
20170921130849 53 319 2.0 0.0 0.00 0.00 0.00 76 1006.7
20170921130350 53 306 3.0 0.0 0.00 0.00 0.00 76 1006.7
20170921125849 53 313 3.0 0.0 0.00 0.00 0.00 75 1006.7
20170921125350 53 294 3.0 0.0 0.00 0.00 0.00 75 1006.7
20170921124833 53 294 2.0 0.0 0.00 0.00 0.00 75 1006.6
20170921124349 53 292 2.0 0.0 0.00 0.00 0.00 75 1006.6
20170921123847 53 306 1.0 0.0 0.00 0.00 0.00 75 1006.6
20170921123347 54 298 1.0 0.0 0.00 0.00 0.00 74 1006.6
20170921122849 54 313 2.0 0.0 0.00 0.00 0.00 74 1006.6
20170921122334 54 300 2.0 0.0 0.00 0.00 0.00 74 1006.6
20170921121834 54 304 2.0 0.0 0.00 0.00 0.00 74 1006.3
20170921121334 54 294 3.0 0.0 0.00 0.00 0.00 74 1006.3
20170921120838 54 304 2.0 0.0 0.00 0.00 0.00 74 1006.3
20170921120336 54 304 2.0 0.0 0.00 0.00 0.00 73 1006.2
20170921115849 54 302 3.0 0.0 0.00 0.00 0.00 73 1006.2
20170921115345 54 277 3.0 0.0 0.00 0.00 0.00 74 1006.2
20170921114846 54 279 2.0 0.0 0.00 0.00 0.00 74 1006.2
20170921114336 54 286 3.0 0.0 0.00 0.00 0.00 74 1006.2
20170921113848 54 288 3.0 0.0 0.00 0.00 0.00 74 1006.2
20170921113350 54 289 2.0 0.0 0.00 0.00 0.00 74 1006.2
20170921112841 54 292 2.0 0.0 0.00 0.00 0.00 73 1006.4
20170921112347 54 291 2.0 0.0 0.00 0.00 0.00 73 1006.4
20170921111834 54 301 2.0 0.0 0.00 0.00 0.00 72 1006.7
20170921111338 54 288 2.0 0.0 0.00 0.00 0.00 72 1006.7
20170921110841 54 292 2.0 0.0 0.00 0.00 0.00 72 1006.7
20170921110341 54 288 2.0 0.0 0.00 0.00 0.00 73 1006.7
20170921105842 54 278 2.0 0.0 0.00 0.00 0.00 73 1006.7
20170921105346 54 290 2.0 0.0 0.00 0.00 0.00 73 1006.7
20170921104848 54 296 1.0 0.0 0.00 0.00 0.00 73 1006.7
20170921104333 54 296 2.0 0.0 0.00 0.00 0.00 73 1006.8
20170921103834 55 299 2.0 0.0 0.00 0.00 0.00 73 1006.8
20170921103339 55 314 1.0 0.0 0.00 0.00 0.00 72 1006.8
20170921102838 55 338 1.0 0.0 0.00 0.00 0.00 72 1006.8
20170921102338 55 307 1.0 0.0 0.00 0.00 0.00 72 1006.8
20170921101835 55 298 1.0 0.0 0.00 0.00 0.00 72 1006.8
20170921101333 55 298 2.0 0.0 0.00 0.00 0.00 72 1006.8
20170921100846 55 287 2.0 0.0 0.00 0.00 0.00 73 1006.8
20170921100335 55 300 1.0 0.0 0.00 0.00 0.00 74 1006.9
20170921095831 55 302 1.0 0.0 0.00 0.00 0.00 74 1006.9
20170921095346 55 307 1.0 0.0 0.00 0.00 0.00 74 1006.9
20170921094851 55 311 1.0 0.0 0.00 0.00 0.00 74 1006.9
20170921094339 55 317 2.0 0.0 0.00 0.00 0.00 74 1006.9
20170921093836 55 299 2.0 0.0 0.00 0.00 0.00 74 1006.9
20170921093345 55 301 2.0 0.0 0.00 0.00 0.00 74 1006.9
20170921092832 55 296 2.0 0.0 0.00 0.00 0.00 75 1007.0
20170921092335 55 283 2.0 0.0 0.00 0.00 0.00 75 1007.0
20170921091849 55 306 2.0 0.0 0.00 0.00 0.00 76 1007.0
20170921091331 54 302 2.0 0.0 0.00 0.00 0.00 76 1007.2
20170921090846 54 296 2.0 0.0 0.00 0.00 0.00 76 1007.2
20170921090345 54 300 2.0 0.0 0.00 0.00 0.00 76 1007.2
20170921085834 54 269 2.0 0.0 0.00 0.00 0.00 76 1007.3
20170921085336 54 332 2.0 0.0 0.00 0.00 0.00 76 1007.3
20170921084845 54 277 2.0 0.0 0.00 0.00 0.00 76 1007.3
20170921084339 54 299 2.0 0.0 0.00 0.00 0.00 75 1007.2
20170921083839 54 301 1.0 0.0 0.00 0.00 0.00 75 1007.2
20170921083334 54 302 1.0 0.0 0.00 0.00 0.00 74 1007.2
20170921082835 54 310 2.0 0.0 0.00 0.00 0.00 75 1007.2
20170921082335 54 307 2.0 0.0 0.00 0.00 0.00 74 1007.2